Location: The Saddle
(36.8333°N, 80.3417°W)
Time: 07:04:40
(UTC-04:00)

Courier 1B - Pass Details

Date: 24 January 2022
Orbit: 962 x 1209 km, 28.3° (Epoch: 22 May)

Event Time Altitude Azimuth Distance (km) Brightness Sun altitude
Rises 19:41:34 0° 234° (SW) 4,064 11.7 -24.6°
Reaches altitude 10° 19:44:40 10° 226° (SW) 3,120 10.8 -25.2°
Maximum altitude 19:51:31 34° 164° (SSE) 1,859 8.8 -26.6°
Enters shadow 19:52:54 32° 144° (SE) 1,927 8.7 -26.9°
